User: anonymous   Login
Location: LDNL
(36.4545°S, 141.6685°E)
Time: 15:33:37
(UTC+10:00)
Language:

Hubble Space Telescope - Orbit

View from above orbital plane
View from above orbital plane
View from above satellite
View from above satellite

Ground track
Ground track

The orbit data is extracted from the following two-line orbital elements,

1 20580U 90037B   22222.28520418  .00001670  00000-0  87418-4 0  9990
2 20580  28.4689 172.0563 0002394 252.9430 268.2211 15.10741284574361
Epoch (UTC): 10 August 2022 06:50:41
Eccentricity: 0.0002394
inclination: 28.4689°
perigee height: 532 km
apogee height: 535 km
right ascension of ascending node: 172.0563°
argument of perigee: 252.9430°
revolutions per day: 15.10741284
mean anomaly at epoch: 268.2211°
orbit number at epoch: 57436

The dashed part of the orbit path shows where the satellite is in the earth's shadow,  

DLR